Погода в Корлики

Погода в Корлики : погода сейчас, прогноз погоды и архив. Всё, что Вы хотите узнать о погоде в Корлики!

Поиск расширенной информации на нашем сайте:

Другие новости

Новости СМИ2

Главная страница сайта

Новости сайта

02.10.2013

Напоминаем, что на нашем новом сайте вы можете получить высокодетализированные прогнозы погоды по пунктам России, СНГ и мира (включающие важные для авиации метеовеличины, такие как направление и скорость ветра, видимость, явления погоды, количество и форма облачности, нижняя и верхняя граница облачности), а также ознакомиться с разнообразными материалами по авиационной метеорологии и подборкой полезных ссылок на эту тему.

Сайт Метеоцентр.Азия посвящён разработке технологий оптимизации авиаметеорологического обслуживания, включая проектирование и перспективное создание нескольких автоматизированных авиаметеорологических систем:
- система выпуска высокодетальных прогностических карт явлений погоды для нижнего воздушного пространства по России и ближнему зарубежью;
- система верификации прогнозов TAF (выпускаемых синоптиками официальных АМСГ РФ и ближнего зарубежья) и AUTOTAF (выпускаемых сайтом Метеоцентр.Азия) - выявление ошибок, онлайн-сопоставление с фактической погодой METAR, автоматическое внесение коррективов в прогнозы при резком отклонении фактической погоды от прогноза, подсчёт оправдываемости прогнозов по элементам и в целом;
- система обработки, анализа и отображения авиаметеорологической информации для применения провайдерами метеорологической информации.


Погода в Корлики - сегодня

Время (UTC), дата Ветер
(°,м/с) 
Видим.   Явления Облачность Т
(°С)
Тd
(°С)
f(%) Тe
(°С)
Pmin
(гПа)
dP
(гПа)
Po
(мм)
O2
(г/м3)
Тmin Tmax R s Состояние
почвы
21 23.06.17 090 (В) 10 км    1/1 600 м 
[Sc]
+12.4 +11.6 95 +17  1007.5  0.5  749  286           
00 24.06.17 тихо ()   н/о    н/о 
+21.2 +14.6 66 +29  1006.5  0.5  749  277           
03 24.06.17 140 (ЮВ) 10 км    ясно 
+27.9 +10.6 34 +30  1006.5  -0.6  749  272  +12.3         
06 24.06.17 100 (В) н/о    н/о 
+29.7 +9.8 29 +31  1004.8  -0.9  748  270           
09 24.06.17 180 (Ю) 10 км    8/8 600 м кучево-дожд. 
[Cb calv]
+29.4 +8.3 27 +29  1003.7  -1.1  747  270           
12 24.06.17 070 (В) н/о    н/о 
+30.3 +8.9 26 +30  1002.6  -1.1  746  269           
15 24.06.17 100 (В) 10 км    6/0 средняя, верхняя 
[Ac trans|Ci fib]
+22.4 +13.2 56 +28  1003.3  -0.3  746  275    +31.6       
18 24.06.17 070 (В) 10 км    3/0 средняя 
[Ac trans]
+15.2 +13.4 89 +23  1003.6  0.1  746  282           
21 24.06.17 070 (В) 10 км    3/0 верхняя 
[Ci fib]
+12.8 +12 95 +18  1001.5  -1.3  745  284           
00 25.06.17 070 (В) 10 км    8/0 верхняя 
[Ci]
+20.3 +12.7 62 +25  1001.7  -0.4  745  277           
03 25.06.17 150 (ЮВ) 10 км    9/0 средняя, верхняя 
[Ac trans|Ci fib]
+27.7 +10.1 33 +29  1000.4  -1  744  270  +12         
06 25.06.17 150 (ЮВ) н/о    н/о 
+29 +9.7 30 +30  998.3  -1.3  743  269           
09 25.06.17 260 (З) 10 км  в посл. час гроза{ливн. осадки}  10/10 600 м кучево-дожд. 
[Cb cap]
+26.4 +11.9 40 +30  999.5  0.2  743  271           
12 25.06.17 290 (З) н/о    н/о 
+18.6 +17.7 95 +34  1001.3  2.5  745  277           
15 25.06.17 тихо ()   10 км  {ливн. осадки}  10/10 600 м 
[Sc]
+18.4 +17.7 96 +32  1002.1  745  277    +29.8     
18 25.06.17 250 (З) 4000 м  дымка  8/8 600 м верхняя 
[Sc|Ci fib]
+16.8 +16.3 97 +29  1002.2  0.8  746  279           
21 25.06.17 290 (З) 4000 м  дымка  9/8 600 м верхняя 
[Sc|Ci fib]
+15.1 +14.6 97 +24  1002.7  0.4  746  282           
00 26.06.17 340 (С) 10 км    8/3 600 м верхняя 
[Sc|Cc]
+16.8 +14.6 87 +26  1004.6  0.9  747  280           
03 26.06.17 340 (С) 10 км    10/6 600 м верхняя 
[Cu Sc|Cs]
+19.2 +13.6 70 +26  1004.4  747  278  +14.6         
06 26.06.17 350 (С) н/о    н/о 
+20.3 +14.1 68 +28  1003.8  0.3  747  277           
09 26.06.17 030 (СВ) 10 км    10/10 600 м 
[Sc]
+20.9 +14.4 66 +29  1004.4  -0.3  747  277           
12 26.06.17 020 (С) н/о    н/о 
+20 +14.9 72 +29  1003.6  0.1  747  277           
15 26.06.17 040 (СВ) 10 км    9/6 600 м верхняя 
[Sc|Cs]
+18.6 +15.2 81 +29  1003.8  -0.7  746  278    +21       
18 26.06.17 тихо ()   10 км    9/9 600 м 
[Sc]
+15.7 +14.9 95 +24  1004  746  281           
21 26.06.17 220 (ЮЗ) 10 км    8/3 600 м верхняя 
[Sc|Ci sp]
+13.6 +13.1 97 +21  1002.8  -1.1  745  283           
Время (UTC), дата Ветер
(°,м/с) 
Видим.   Явления Облачность Т
(°С)
Тd
(°С)
f(%) Тe
(°С)
Pmin
(гПа)
dP
(гПа)
Po
(мм)
O2
(г/м3)
Тmin Tmax R s Состояние
почвы

Для получения пояснительной информации подведите курсор к названию столбца.

ПОГОДА в Корлики - архив

Всё, что Вы хотите узнать о погоде в Корлики - удобно и подробно!

Выберите нужную дату (начиная с 1 января 2015* года) и нажмите кнопку "Найти".
Будут отображены архивные сводки погоды по пункту Корлики, начиная с указанной даты.


Отображать данные в формате CSV (для использования в таблицах Excel)


Внимание! Наш архив погоды предназначен исключительно для личного некоммерческого использования в познавательных целях. Если Вам необходимы официальные справки о состоянии погоды (для производственных, юридических, коммерческих и т.п. целей), обращайтесь в органы Росгидромета.

*Примечание: данная дата относится к архиву по метеостанциям СССР (Россия, СНГ, Балтия).
Архив по метеостанциям Зарубежной Европы и Азии (кроме Китая) хранится 10 дней, по другим регионам земного шара (Китай, Африка, Америка, Австралия, Океания) - 1 день.

Корлики - район местоположения метеостанции


Название, широта, долгота, высота метеостанции:
Корлики 61.5°ш. 82.4°д. 80 м над ур. моря [Российская Федерация]

Дополнительная информация

В oтличие oт бoльшинства пoгoдных сайтoв мы публикуем пoдрoбную метеoинфoрмацию в детальнoм прoфессиoнальнoм фoрмате.

Характеристики температуры и влажнoсти вoздуха измеряются на высoте 2 м в тени вдали oт зданий и деревьев.
Скoрoсть ветра измеряется на высoте 10 м (на урoвне рoста челoвека скoрoсть ветра ниже в 1.5-2 раза). Если метеoстанция нахoдится в гoрoде или в лесу, тo скoрoсть ветра занижена на 2-4 м/с пo сравнению с oткрытым местoм. Скoрoсть ветра над акватoриями крупных рек и oзёр, а также на вершинах хoлмoв на 2-5 м/с выше, чем в oбычных услoвиях.
Атмoсфернoе давление в разных тoчках местнoсти мoжет значительнo oтличаться oт давления на метеoстанции, в зависимoсти oт услoвий рельефа (при пoдъёме на 10 м давление пoнижается примернo на 1 мм рт.ст.).